Time,TemperatureF,DewpointF,PressureIn,WindDirection,WindDirectionDegrees,WindSpeedMPH,WindSpeedGustMPH,Humidity,HourlyPrecipIn,Conditions,Clouds,dailyrainin,SoftwareType,DateUTC
2013-06-21 00:01:00,69.1,64.3,30.22,East,90,0.0,0.0,85,0.00,,,0.00,WUHU21623XXSP,2013-06-21 04:01:00,
2013-06-21 00:06:00,69.1,64.3,30.23,ESE,112,0.0,0.0,85,0.00,,,0.00,WUHU21623XXSP,2013-06-21 04:06:00,
2013-06-21 00:11:00,68.9,64.2,30.22,South,180,0.0,0.0,85,0.00,,,0.00,WUHU21623XXSP,2013-06-21 04:11:00,
2013-06-21 00:16:00,68.7,64.0,30.22,ESE,112,0.0,0.0,85,0.00,,,0.00,WUHU21623XXSP,2013-06-21 04:16:00,
2013-06-21 00:21:00,68.7,64.0,30.22,ESE,112,0.0,0.0,85,0.00,,,0.00,WUHU21623XXSP,2013-06-21 04:21:00,
2013-06-21 00:26:00,68.7,64.0,30.22,NNE,22,0.0,0.0,85,0.00,,,0.00,WUHU21623XXSP,2013-06-21 04:26:00,
2013-06-21 00:31:00,68.7,64.0,30.22,NNE,22,0.0,0.0,85,0.00,,,0.00,WUHU21623XXSP,2013-06-21 04:31:00,
2013-06-21 00:36:00,68.5,63.8,30.22,ESE,112,0.0,0.0,85,0.00,,,0.00,WUHU21623XXSP,2013-06-21 04:36:00,
2013-06-21 00:41:00,68.4,63.7,30.22,East,90,0.0,0.0,85,0.00,,,0.00,WUHU21623XXSP,2013-06-21 04:41:00,
2013-06-21 00:46:00,68.4,63.7,30.22,NNE,22,0.0,0.0,85,0.00,,,0.00,WUHU21623XXSP,2013-06-21 04:46:00,
2013-06-21 00:51:00,68.2,63.5,30.22,ESE,112,0.0,0.0,85,0.00,,,0.00,WUHU21623XXSP,2013-06-21 04:51:00,
2013-06-21 00:56:00,67.8,63.1,30.22,South,180,0.0,0.0,85,0.00,,,0.00,WUHU21623XXSP,2013-06-21 04:56:00,
2013-06-21 01:01:00,67.8,63.1,30.22,South,180,0.0,0.0,85,0.00,,,0.00,WUHU21623XXSP,2013-06-21 05:01:00,
2013-06-21 01:06:00,67.8,63.1,30.22,East,90,1.2,1.3,85,0.00,,,0.00,WUHU21623XXSP,2013-06-21 05:06:00,
2013-06-21 01:11:00,67.6,63.3,30.22,NNE,22,0.0,1.3,86,0.00,,,0.00,WUHU21623XXSP,2013-06-21 05:11:00,
2013-06-21 01:16:00,67.5,63.1,30.22,East,90,1.4,1.7,86,0.00,,,0.00,WUHU21623XXSP,2013-06-21 05:16:00,
2013-06-21 01:21:00,67.5,63.4,30.22,ESE,112,1.4,1.7,87,0.00,,,0.00,WUHU21623XXSP,2013-06-21 05:21:00,
2013-06-21 01:27:00,67.5,63.4,30.22,East,90,0.0,1.7,87,0.00,,,0.00,WUHU21623XXSP,2013-06-21 05:27:00,
2013-06-21 01:32:00,67.6,63.6,30.22,East,90,0.0,0.0,87,0.00,,,0.00,WUHU21623XXSP,2013-06-21 05:32:00,
2013-06-21 01:37:00,67.3,62.9,30.22,ESE,112,0.0,0.0,86,0.00,,,0.00,WUHU21623XXSP,2013-06-21 05:37:00,
2013-06-21 01:42:00,67.3,63.2,30.21,ESE,112,0.0,0.0,87,0.00,,,0.00,WUHU21623XXSP,2013-06-21 05:42:00,
2013-06-21 01:46:00,66.9,62.9,30.21,ESE,112,0.0,0.0,87,0.00,,,0.00,WUHU21623XXSP,2013-06-21 05:46:00,
2013-06-21 01:51:00,66.9,62.9,30.22,ESE,112,0.0,0.0,87,0.00,,,0.00,WUHU21623XXSP,2013-06-21 05:51:00,
2013-06-21 01:57:00,66.7,62.7,30.21,ESE,112,0.0,0.0,87,0.00,,,0.00,WUHU21623XXSP,2013-06-21 05:57:00,
2013-06-21 02:02:00,66.7,62.7,30.21,ESE,112,0.0,0.0,87,0.00,,,0.00,WUHU21623XXSP,2013-06-21 06:02:00,
2013-06-21 02:07:00,66.7,62.7,30.21,NNE,22,0.0,0.0,87,0.00,,,0.00,WUHU21623XXSP,2013-06-21 06:07:00,
2013-06-21 02:12:00,66.7,62.7,30.21,ESE,112,0.0,0.0,87,0.00,,,0.00,WUHU21623XXSP,2013-06-21 06:12:00,
2013-06-21 02:17:00,66.6,62.5,30.21,ESE,112,0.0,0.0,87,0.00,,,0.00,WUHU21623XXSP,2013-06-21 06:17:00,
2013-06-21 02:22:00,66.6,62.5,30.21,South,180,0.0,0.0,87,0.00,,,0.00,WUHU21623XXSP,2013-06-21 06:22:00,
2013-06-21 02:27:00,66.6,62.5,30.21,ESE,112,0.0,0.0,87,0.00,,,0.00,WUHU21623XXSP,2013-06-21 06:27:00,
2013-06-21 02:32:00,66.6,62.5,30.21,East,90,0.0,0.0,87,0.00,,,0.00,WUHU21623XXSP,2013-06-21 06:32:00,
2013-06-21 02:37:00,66.7,63.0,30.21,East,90,0.0,0.0,88,0.00,,,0.00,WUHU21623XXSP,2013-06-21 06:37:00,
2013-06-21 02:42:00,66.7,63.0,30.21,East,90,0.0,0.0,88,0.00,,,0.00,WUHU21623XXSP,2013-06-21 06:42:00,
2013-06-21 02:47:00,66.7,63.0,30.21,East,90,1.4,1.7,88,0.00,,,0.00,WUHU21623XXSP,2013-06-21 06:47:00,
2013-06-21 02:52:00,66.7,63.0,30.21,NNE,22,0.0,1.7,88,0.00,,,0.00,WUHU21623XXSP,2013-06-21 06:52:00,
2013-06-21 02:57:00,66.7,63.0,30.20,ESE,112,0.0,1.7,88,0.00,,,0.00,WUHU21623XXSP,2013-06-21 06:57:00,
2013-06-21 03:02:00,66.6,62.9,30.20,ESE,112,0.0,0.0,88,0.00,,,0.00,WUHU21623XXSP,2013-06-21 07:02:00,
2013-06-21 03:07:00,66.6,62.9,30.20,ESE,112,0.0,0.0,88,0.00,,,0.00,WUHU21623XXSP,2013-06-21 07:07:00,
2013-06-21 03:12:00,66.4,62.7,30.20,ESE,112,0.0,0.0,88,0.00,,,0.00,WUHU21623XXSP,2013-06-21 07:12:00,
2013-06-21 03:17:00,66.4,62.7,30.20,East,90,0.0,0.0,88,0.00,,,0.00,WUHU21623XXSP,2013-06-21 07:17:00,
2013-06-21 03:22:00,66.4,62.7,30.20,ESE,112,0.0,0.0,88,0.00,,,0.00,WUHU21623XXSP,2013-06-21 07:22:00,
2013-06-21 03:27:00,66.2,62.2,30.20,ESE,112,0.0,0.0,87,0.00,,,0.00,WUHU21623XXSP,2013-06-21 07:27:00,
2013-06-21 03:32:00,66.0,62.0,30.20,ESE,112,0.0,0.0,87,0.00,,,0.00,WUHU21623XXSP,2013-06-21 07:32:00,
2013-06-21 03:37:00,66.0,62.0,30.20,East,90,0.0,0.0,87,0.00,,,0.00,WUHU21623XXSP,2013-06-21 07:37:00,
2013-06-21 03:42:00,66.0,62.0,30.20,ESE,112,0.0,0.0,87,0.00,,,0.00,WUHU21623XXSP,2013-06-21 07:42:00,
2013-06-21 03:47:00,66.0,62.0,30.20,ESE,112,0.0,0.0,87,0.00,,,0.00,WUHU21623XXSP,2013-06-21 07:47:00,
2013-06-21 03:52:00,66.0,62.0,30.20,North,0,0.0,0.0,87,0.00,,,0.00,WUHU21623XXSP,2013-06-21 07:52:00,
2013-06-21 03:57:00,66.0,62.0,30.20,ESE,112,0.0,0.0,87,0.00,,,0.00,WUHU21623XXSP,2013-06-21 07:57:00,
2013-06-21 04:02:00,66.0,62.0,30.20,ESE,112,0.0,0.0,87,0.00,,,0.00,WUHU21623XXSP,2013-06-21 08:02:00,
2013-06-21 04:07:00,66.0,62.0,30.20,South,180,0.0,0.0,87,0.00,,,0.00,WUHU21623XXSP,2013-06-21 08:07:00,
2013-06-21 04:12:00,65.8,61.8,30.20,ESE,112,0.0,0.0,87,0.00,,,0.00,WUHU21623XXSP,2013-06-21 08:12:00,
2013-06-21 04:17:00,65.8,62.2,30.20,East,90,0.0,0.0,88,0.00,,,0.00,WUHU21623XXSP,2013-06-21 08:17:00,
2013-06-21 04:22:00,65.7,62.0,30.20,East,90,0.0,0.0,88,0.00,,,0.00,WUHU21623XXSP,2013-06-21 08:22:00,
2013-06-21 04:27:00,65.5,61.8,30.20,East,90,0.0,0.0,88,0.00,,,0.00,WUHU21623XXSP,2013-06-21 08:27:00,
2013-06-21 04:32:00,65.5,61.8,30.20,East,90,0.0,0.0,88,0.00,,,0.00,WUHU21623XXSP,2013-06-21 08:32:00,
2013-06-21 04:37:00,65.5,61.8,30.20,East,90,0.0,0.0,88,0.00,,,0.00,WUHU21623XXSP,2013-06-21 08:37:00,
2013-06-21 04:42:00,65.3,61.7,30.20,East,90,0.0,0.0,88,0.00,,,0.00,WUHU21623XXSP,2013-06-21 08:42:00,
2013-06-21 04:47:00,65.3,61.7,30.20,East,90,0.0,0.0,88,0.00,,,0.00,WUHU21623XXSP,2013-06-21 08:47:00,
2013-06-21 04:52:00,65.3,61.7,30.20,East,90,0.0,0.0,88,0.00,,,0.00,WUHU21623XXSP,2013-06-21 08:52:00,
2013-06-21 04:57:00,65.1,61.5,30.21,East,90,0.0,0.0,88,0.00,,,0.00,WUHU21623XXSP,2013-06-21 08:57:00,
2013-06-21 05:02:00,65.1,61.5,30.21,East,90,0.0,0.0,88,0.00,,,0.00,WUHU21623XXSP,2013-06-21 09:02:00,
2013-06-21 05:07:00,64.9,61.3,30.21,ESE,112,0.0,0.0,88,0.00,,,0.00,WUHU21623XXSP,2013-06-21 09:07:00,
2013-06-21 05:12:00,64.9,61.3,30.20,ESE,112,0.0,0.0,88,0.00,,,0.00,WUHU21623XXSP,2013-06-21 09:12:00,
2013-06-21 05:17:00,64.9,61.3,30.21,East,90,0.0,0.0,88,0.00,,,0.00,WUHU21623XXSP,2013-06-21 09:17:00,
2013-06-21 05:22:00,64.8,61.2,30.20,East,90,0.0,0.0,88,0.00,,,0.00,WUHU21623XXSP,2013-06-21 09:22:00,
2013-06-21 05:27:00,64.6,61.0,30.21,East,90,0.0,0.0,88,0.00,,,0.00,WUHU21623XXSP,2013-06-21 09:27:00,
2013-06-21 05:32:00,64.6,61.0,30.21,NNE,22,0.0,0.0,88,0.00,,,0.00,WUHU21623XXSP,2013-06-21 09:32:00,
2013-06-21 05:37:00,64.6,61.0,30.22,East,90,0.0,0.0,88,0.00,,,0.00,WUHU21623XXSP,2013-06-21 09:37:00,
2013-06-21 05:42:00,64.6,61.0,30.22,East,90,0.0,0.0,88,0.00,,,0.00,WUHU21623XXSP,2013-06-21 09:42:00,
2013-06-21 05:47:00,64.2,60.7,30.22,East,90,0.0,0.0,88,0.00,,,0.00,WUHU21623XXSP,2013-06-21 09:47:00,
2013-06-21 05:52:00,64.2,60.7,30.22,East,90,0.0,0.0,88,0.00,,,0.00,WUHU21623XXSP,2013-06-21 09:52:00,
2013-06-21 05:57:00,64.2,60.7,30.22,ESE,112,1.7,3.8,88,0.00,,,0.00,WUHU21623XXSP,2013-06-21 09:57:00,
2013-06-21 06:02:00,64.2,60.7,30.22,East,90,0.0,3.8,88,0.00,,,0.00,WUHU21623XXSP,2013-06-21 10:02:00,
2013-06-21 06:07:00,64.2,60.7,30.22,ESE,112,0.0,1.9,88,0.00,,,0.00,WUHU21623XXSP,2013-06-21 10:07:00,
2013-06-21 06:12:00,64.0,60.5,30.23,ESE,112,0.0,0.0,88,0.00,,,0.00,WUHU21623XXSP,2013-06-21 10:12:00,
2013-06-21 06:17:00,64.0,60.5,30.22,NNE,22,0.0,1.7,88,0.00,,,0.00,WUHU21623XXSP,2013-06-21 10:17:00,
2013-06-21 06:22:00,64.0,60.5,30.23,ESE,112,0.0,1.7,88,0.00,,,0.00,WUHU21623XXSP,2013-06-21 10:22:00,
2013-06-21 06:27:00,64.0,60.5,30.23,ESE,112,0.0,0.0,88,0.00,,,0.00,WUHU21623XXSP,2013-06-21 10:27:00,
2013-06-21 06:32:00,64.0,60.5,30.23,East,90,0.0,0.0,88,0.00,,,0.00,WUHU21623XXSP,2013-06-21 10:32:00,
2013-06-21 06:37:00,64.2,60.7,30.23,East,90,0.0,0.0,88,0.00,,,0.00,WUHU21623XXSP,2013-06-21 10:37:00,
2013-06-21 06:42:00,64.4,60.8,30.23,East,90,0.0,0.0,88,0.00,,,0.00,WUHU21623XXSP,2013-06-21 10:42:00,
2013-06-21 06:47:00,64.6,61.0,30.24,East,90,0.0,0.0,88,0.00,,,0.00,WUHU21623XXSP,2013-06-21 10:47:00,
2013-06-21 06:52:00,64.6,61.0,30.24,East,90,0.0,0.0,88,0.00,,,0.00,WUHU21623XXSP,2013-06-21 10:52:00,
2013-06-21 06:57:00,64.4,60.8,30.24,South,180,0.0,0.0,88,0.00,,,0.00,WUHU21623XXSP,2013-06-21 10:57:00,
2013-06-21 07:02:00,64.6,61.0,30.24,South,180,0.0,0.0,88,0.00,,,0.00,WUHU21623XXSP,2013-06-21 11:02:00,
2013-06-21 07:07:00,64.6,61.0,30.24,ESE,112,0.0,0.0,88,0.00,,,0.00,WUHU21623XXSP,2013-06-21 11:07:00,
2013-06-21 07:12:00,64.6,61.0,30.24,ESE,112,0.0,0.0,88,0.00,,,0.00,WUHU21623XXSP,2013-06-21 11:12:00,
2013-06-21 07:17:00,64.8,61.2,30.24,ESE,112,0.0,0.0,88,0.00,,,0.00,WUHU21623XXSP,2013-06-21 11:17:00,
2013-06-21 07:22:00,64.8,61.2,30.24,NNE,22,0.0,0.0,88,0.00,,,0.00,WUHU21623XXSP,2013-06-21 11:22:00,
2013-06-21 07:27:00,64.8,61.2,30.24,NNE,22,0.0,0.0,88,0.00,,,0.00,WUHU21623XXSP,2013-06-21 11:27:00,
2013-06-21 07:32:00,64.9,61.0,30.25,NNE,22,0.0,0.0,87,0.00,,,0.00,WUHU21623XXSP,2013-06-21 11:32:00,
2013-06-21 07:37:00,65.1,61.2,30.25,ESE,112,0.0,0.0,87,0.00,,,0.00,WUHU21623XXSP,2013-06-21 11:37:00,
2013-06-21 07:42:00,65.1,61.2,30.25,ESE,112,0.0,0.0,87,0.00,,,0.00,WUHU21623XXSP,2013-06-21 11:42:00,
2013-06-21 07:47:00,65.1,61.2,30.25,ESE,112,0.0,0.0,87,0.00,,,0.00,WUHU21623XXSP,2013-06-21 11:47:00,
2013-06-21 07:52:00,65.3,61.3,30.25,ESE,112,0.0,0.0,87,0.00,,,0.00,WUHU21623XXSP,2013-06-21 11:52:00,
2013-06-21 07:57:00,65.5,61.5,30.25,ESE,112,0.0,0.0,87,0.00,,,0.00,WUHU21623XXSP,2013-06-21 11:57:00,
2013-06-21 08:02:00,65.7,61.7,30.25,ESE,112,0.0,0.0,87,0.00,,,0.00,WUHU21623XXSP,2013-06-21 12:02:00,
2013-06-21 08:07:00,66.0,62.0,30.25,NNE,22,0.0,0.0,87,0.00,,,0.00,WUHU21623XXSP,2013-06-21 12:07:00,
2013-06-21 08:12:00,66.0,62.0,30.25,NNE,22,0.0,0.0,87,0.00,,,0.00,WUHU21623XXSP,2013-06-21 12:12:00,
2013-06-21 08:17:00,66.0,62.0,30.25,NNE,22,0.0,0.0,87,0.00,,,0.00,WUHU21623XXSP,2013-06-21 12:17:00,
2013-06-21 08:22:00,66.9,63.2,30.25,ESE,112,0.0,0.0,88,0.00,,,0.00,WUHU21623XXSP,2013-06-21 12:22:00,
2013-06-21 08:27:00,67.3,63.2,30.26,ESE,112,0.0,0.0,87,0.00,,,0.00,WUHU21623XXSP,2013-06-21 12:27:00,
2013-06-21 08:32:00,67.6,63.6,30.25,NNE,22,0.0,0.0,87,0.00,,,0.00,WUHU21623XXSP,2013-06-21 12:32:00,
2013-06-21 08:37:00,67.8,63.8,30.26,NNE,22,0.0,0.0,87,0.00,,,0.00,WUHU21623XXSP,2013-06-21 12:37:00,
2013-06-21 08:42:00,68.2,64.1,30.26,NNE,22,0.0,0.0,87,0.00,,,0.00,WUHU21623XXSP,2013-06-21 12:42:00,
2013-06-21 08:47:00,68.5,64.5,30.26,North,0,0.0,0.0,87,0.00,,,0.00,WUHU21623XXSP,2013-06-21 12:47:00,
2013-06-21 08:52:00,68.5,64.5,30.26,North,0,0.0,0.0,87,0.00,,,0.00,WUHU21623XXSP,2013-06-21 12:52:00,
2013-06-21 08:57:00,68.7,64.7,30.26,North,0,0.0,0.0,87,0.00,,,0.00,WUHU21623XXSP,2013-06-21 12:57:00,
2013-06-21 09:02:00,68.9,64.8,30.26,North,0,0.0,0.0,87,0.00,,,0.00,WUHU21623XXSP,2013-06-21 13:02:00,
2013-06-21 09:07:00,69.3,65.5,30.26,North,0,0.0,0.0,88,0.00,,,0.00,WUHU21623XXSP,2013-06-21 13:07:00,
2013-06-21 09:12:00,69.4,65.7,30.26,WNW,292,0.0,0.0,88,0.00,,,0.00,WUHU21623XXSP,2013-06-21 13:12:00,
2013-06-21 09:17:00,69.6,65.9,30.26,WNW,292,0.0,0.0,88,0.00,,,0.00,WUHU21623XXSP,2013-06-21 13:17:00,
2013-06-21 09:22:00,70.0,66.2,30.26,ESE,112,0.0,0.0,88,0.00,,,0.00,WUHU21623XXSP,2013-06-21 13:22:00,
2013-06-21 09:27:00,70.3,66.6,30.26,North,0,0.0,0.0,88,0.00,,,0.00,WUHU21623XXSP,2013-06-21 13:27:00,
2013-06-21 09:32:00,70.5,66.4,30.27,North,0,0.0,0.0,87,0.00,,,0.00,WUHU21623XXSP,2013-06-21 13:32:00,
2013-06-21 09:37:00,70.7,66.6,30.26,WNW,292,0.0,0.0,87,0.00,,,0.00,WUHU21623XXSP,2013-06-21 13:37:00,
2013-06-21 09:42:00,71.2,67.2,30.27,WNW,292,0.0,0.0,87,0.00,,,0.00,WUHU21623XXSP,2013-06-21 13:42:00,
2013-06-21 09:47:00,71.8,67.7,30.27,North,0,0.0,0.0,87,0.00,,,0.00,WUHU21623XXSP,2013-06-21 13:47:00,
2013-06-21 09:52:00,72.3,68.2,30.27,North,0,0.0,0.0,87,0.00,,,0.00,WUHU21623XXSP,2013-06-21 13:52:00,
2013-06-21 09:57:00,73.0,68.6,30.27,WNW,292,0.0,0.0,86,0.00,,,0.00,WUHU21623XXSP,2013-06-21 13:57:00,
2013-06-21 10:02:00,72.9,68.1,30.27,WNW,292,0.0,0.0,85,0.00,,,0.00,WUHU21623XXSP,2013-06-21 14:02:00,
2013-06-21 10:08:00,72.9,68.1,30.27,WNW,292,0.0,0.0,85,0.00,,,0.00,WUHU21623XXSP,2013-06-21 14:08:00,
2013-06-21 10:13:00,73.0,68.3,30.27,WNW,292,0.0,0.0,85,0.00,,,0.00,WUHU21623XXSP,2013-06-21 14:13:00,
2013-06-21 10:18:00,73.0,68.6,30.27,WNW,292,0.0,0.0,86,0.00,,,0.00,WUHU21623XXSP,2013-06-21 14:18:00,
2013-06-21 10:23:00,72.9,68.1,30.27,West,270,0.0,1.7,85,0.00,,,0.00,WUHU21623XXSP,2013-06-21 14:23:00,
2013-06-21 10:28:00,73.2,68.5,30.27,East,90,0.0,1.7,85,0.00,,,0.00,WUHU21623XXSP,2013-06-21 14:28:00,
2013-06-21 10:33:00,73.6,68.8,30.27,South,180,0.0,1.7,85,0.00,,,0.00,WUHU21623XXSP,2013-06-21 14:33:00,
2013-06-21 10:38:00,73.8,68.6,30.27,South,180,0.0,1.7,84,0.00,,,0.00,WUHU21623XXSP,2013-06-21 14:38:00,
2013-06-21 10:43:00,73.9,68.8,30.27,WNW,292,0.0,1.3,84,0.00,,,0.00,WUHU21623XXSP,2013-06-21 14:43:00,
2013-06-21 10:48:00,74.8,70.1,30.27,West,270,0.0,0.0,85,0.00,,,0.00,WUHU21623XXSP,2013-06-21 14:48:00,
2013-06-21 10:53:00,75.2,70.1,30.27,West,270,0.0,0.0,84,0.00,,,0.00,WUHU21623XXSP,2013-06-21 14:53:00,
2013-06-21 10:58:00,75.0,68.9,30.28,NNE,22,0.0,1.9,81,0.00,,,0.00,WUHU21623XXSP,2013-06-21 14:58:00,
2013-06-21 11:03:00,75.0,68.9,30.28,SSW,202,0.0,1.9,81,0.00,,,0.00,WUHU21623XXSP,2013-06-21 15:03:00,
2013-06-21 11:08:00,75.0,68.9,30.28,East,90,0.0,0.0,81,0.00,,,0.00,WUHU21623XXSP,2013-06-21 15:08:00,
2013-06-21 11:13:00,75.7,69.5,30.28,West,270,0.0,0.0,81,0.00,,,0.00,WUHU21623XXSP,2013-06-21 15:13:00,
2013-06-21 11:18:00,75.7,69.5,30.28,NNE,22,0.0,0.0,81,0.00,,,0.00,WUHU21623XXSP,2013-06-21 15:18:00,
2013-06-21 11:23:00,75.7,69.5,30.28,North,0,0.0,0.0,81,0.00,,,0.00,WUHU21623XXSP,2013-06-21 15:23:00,
2013-06-21 11:28:00,75.6,69.7,30.28,West,270,0.0,0.0,82,0.00,,,0.00,WUHU21623XXSP,2013-06-21 15:28:00,
2013-06-21 11:33:00,75.6,69.4,30.28,North,0,0.0,0.0,81,0.00,,,0.00,WUHU21623XXSP,2013-06-21 15:33:00,
2013-06-21 11:38:00,75.6,68.6,30.28,ESE,112,0.0,0.0,79,0.00,,,0.00,WUHU21623XXSP,2013-06-21 15:38:00,
2013-06-21 11:43:00,75.4,68.1,30.28,SSW,202,0.0,0.0,78,0.00,,,0.00,WUHU21623XXSP,2013-06-21 15:43:00,
2013-06-21 11:48:00,75.6,68.6,30.28,WNW,292,0.0,0.0,79,0.00,,,0.00,WUHU21623XXSP,2013-06-21 15:48:00,
2013-06-21 11:53:00,75.6,69.0,30.28,North,0,0.0,0.0,80,0.00,,,0.00,WUHU21623XXSP,2013-06-21 15:53:00,
2013-06-21 11:58:00,75.4,68.9,30.28,South,180,0.0,0.0,80,0.00,,,0.00,WUHU21623XXSP,2013-06-21 15:58:00,
2013-06-21 12:03:00,75.2,69.1,30.28,ESE,112,0.0,0.0,81,0.00,,,0.00,WUHU21623XXSP,2013-06-21 16:03:00,
2013-06-21 12:08:00,75.4,69.2,30.28,SSW,202,0.0,0.0,81,0.00,,,0.00,WUHU21623XXSP,2013-06-21 16:08:00,
2013-06-21 12:13:00,75.2,69.1,30.28,West,270,0.0,0.0,81,0.00,,,0.00,WUHU21623XXSP,2013-06-21 16:13:00,
2013-06-21 12:18:00,75.0,68.9,30.28,WNW,292,0.0,0.0,81,0.00,,,0.00,WUHU21623XXSP,2013-06-21 16:18:00,
2013-06-21 12:23:00,74.8,68.7,30.28,WNW,292,0.0,0.0,81,0.00,,,0.00,WUHU21623XXSP,2013-06-21 16:23:00,
2013-06-21 12:28:00,74.8,68.4,30.29,WNW,292,0.0,0.0,80,0.00,,,0.00,WUHU21623XXSP,2013-06-21 16:28:00,
2013-06-21 12:33:00,74.8,68.0,30.28,West,270,0.0,0.0,79,0.00,,,0.00,WUHU21623XXSP,2013-06-21 16:33:00,
2013-06-21 12:38:00,74.8,68.0,30.28,West,270,0.0,0.0,79,0.00,,,0.00,WUHU21623XXSP,2013-06-21 16:38:00,
2013-06-21 12:43:00,75.0,68.5,30.28,WNW,292,0.0,0.0,80,0.00,,,0.00,WUHU21623XXSP,2013-06-21 16:43:00,
2013-06-21 12:48:00,75.4,69.2,30.28,WNW,292,0.0,0.0,81,0.00,,,0.00,WUHU21623XXSP,2013-06-21 16:48:00,
2013-06-21 12:53:00,75.6,68.6,30.28,West,270,0.0,0.0,79,0.00,,,0.00,WUHU21623XXSP,2013-06-21 16:53:00,
2013-06-21 12:58:00,75.9,69.0,30.27,WNW,292,0.0,0.0,79,0.00,,,0.00,WUHU21623XXSP,2013-06-21 16:58:00,
2013-06-21 13:03:00,76.3,68.9,30.27,ESE,112,1.2,1.3,78,0.00,,,0.00,WUHU21623XXSP,2013-06-21 17:03:00,
2013-06-21 13:09:00,77.5,70.1,30.27,ESE,112,2.1,2.4,78,0.00,,,0.00,WUHU21623XXSP,2013-06-21 17:09:00,
2013-06-21 13:15:00,79.3,70.3,30.27,South,180,0.0,2.4,74,0.00,,,0.00,WUHU21623XXSP,2013-06-21 17:15:00,
2013-06-21 13:20:00,79.7,69.5,30.27,SSW,202,0.0,4.4,71,0.00,,,0.00,WUHU21623XXSP,2013-06-21 17:20:00,
2013-06-21 13:25:00,79.5,69.3,30.27,North,0,0.0,4.4,71,0.00,,,0.00,WUHU21623XXSP,2013-06-21 17:25:00,
2013-06-21 13:30:00,79.9,70.4,30.27,WNW,292,0.0,1.9,73,0.00,,,0.00,WUHU21623XXSP,2013-06-21 17:30:00,
2013-06-21 13:35:00,81.7,70.5,30.27,SSW,202,3.3,12.5,69,0.00,,,0.00,WUHU21623XXSP,2013-06-21 17:35:00,
2013-06-21 13:40:00,82.0,70.4,30.26,West,270,1.4,12.5,68,0.00,,,0.00,WUHU21623XXSP,2013-06-21 17:40:00,
2013-06-21 13:46:00,82.9,71.2,30.26,WNW,292,0.0,3.8,68,0.00,,,0.00,WUHU21623XXSP,2013-06-21 17:46:00,
2013-06-21 13:51:00,82.2,70.1,30.26,West,270,0.0,1.9,67,0.00,,,0.00,WUHU21623XXSP,2013-06-21 17:51:00,
2013-06-21 13:57:00,82.8,71.1,30.25,WNW,292,0.0,0.0,68,0.00,,,0.00,WUHU21623XXSP,2013-06-21 17:57:00,
2013-06-21 14:02:00,82.9,70.3,30.25,WNW,292,3.8,4.4,66,0.00,,,0.00,WUHU21623XXSP,2013-06-21 18:02:00,
2013-06-21 14:07:00,83.1,71.0,30.25,West,270,0.0,4.4,67,0.00,,,0.00,WUHU21623XXSP,2013-06-21 18:07:00,
2013-06-21 14:13:00,83.1,71.0,30.25,WNW,292,0.0,2.7,67,0.00,,,0.00,WUHU21623XXSP,2013-06-21 18:13:00,
2013-06-21 14:18:00,83.7,70.2,30.25,North,0,0.0,2.7,64,0.00,,,0.00,WUHU21623XXSP,2013-06-21 18:18:00,
2013-06-21 14:23:00,83.5,70.0,30.25,SSW,202,2.6,3.0,64,0.00,,,0.00,WUHU21623XXSP,2013-06-21 18:23:00,
2013-06-21 14:24:00,83.5,70.4,30.25,WNW,292,0.0,3.0,65,0.00,,,0.00,WUHU21623XXSP,2013-06-21 18:24:00,
2013-06-21 14:29:00,83.7,70.2,30.25,West,270,0.0,3.0,64,0.00,,,0.00,WUHU21623XXSP,2013-06-21 18:29:00,
2013-06-21 14:34:00,83.8,69.9,30.25,WNW,292,0.0,1.3,63,0.00,,,0.00,WUHU21623XXSP,2013-06-21 18:34:00,
2013-06-21 14:39:00,84.4,70.4,30.25,North,0,0.0,1.3,63,0.00,,,0.00,WUHU21623XXSP,2013-06-21 18:39:00,
2013-06-21 14:44:00,84.7,71.2,30.25,WNW,292,0.0,0.0,64,0.00,,,0.00,WUHU21623XXSP,2013-06-21 18:44:00,
2013-06-21 14:45:00,84.7,71.2,30.25,West,270,0.0,0.0,64,0.00,,,0.00,WUHU21623XXSP,2013-06-21 18:45:00,
2013-06-21 14:46:00,84.7,71.2,30.25,West,270,0.0,0.0,64,0.00,,,0.00,WUHU21623XXSP,2013-06-21 18:46:00,
2013-06-21 14:51:00,84.9,70.9,30.25,WNW,292,0.0,0.0,63,0.00,,,0.00,WUHU21623XXSP,2013-06-21 18:51:00,
2013-06-21 14:56:00,84.6,70.6,30.25,West,270,1.2,1.3,63,0.00,,,0.00,WUHU21623XXSP,2013-06-21 18:56:00,
2013-06-21 15:01:00,84.7,70.7,30.25,West,270,2.9,3.3,63,0.00,,,0.00,WUHU21623XXSP,2013-06-21 19:01:00,
2013-06-21 15:06:00,84.2,70.3,30.25,WNW,292,0.0,3.3,63,0.00,,,0.00,WUHU21623XXSP,2013-06-21 19:06:00,
2013-06-21 15:11:00,83.5,70.0,30.25,WNW,292,0.0,6.0,64,0.00,,,0.00,WUHU21623XXSP,2013-06-21 19:11:00,
2013-06-21 15:16:00,83.8,70.3,30.25,WNW,292,0.0,6.0,64,0.00,,,0.00,WUHU21623XXSP,2013-06-21 19:16:00,
2013-06-21 15:20:00,84.0,71.4,30.24,WNW,292,0.0,1.3,66,0.00,,,0.00,WUHU21623XXSP,2013-06-21 19:20:00,
2013-06-21 15:25:00,84.0,70.1,30.24,West,270,0.0,1.0,63,0.00,,,0.00,WUHU21623XXSP,2013-06-21 19:25:00,
2013-06-21 15:30:00,83.8,70.3,30.24,WNW,292,0.0,1.0,64,0.00,,,0.00,WUHU21623XXSP,2013-06-21 19:30:00,
2013-06-21 15:35:00,83.5,70.0,30.24,SSW,202,2.1,2.4,64,0.00,,,0.00,WUHU21623XXSP,2013-06-21 19:35:00,
2013-06-21 15:40:00,83.3,70.3,30.24,WNW,292,0.0,3.3,65,0.00,,,0.00,WUHU21623XXSP,2013-06-21 19:40:00,
2013-06-21 15:42:00,83.1,70.1,30.24,SSW,202,1.2,3.3,65,0.00,,,0.00,WUHU21623XXSP,2013-06-21 19:42:00,
2013-06-21 15:43:00,82.9,69.4,30.24,South,180,0.0,3.3,64,0.00,,,0.00,WUHU21623XXSP,2013-06-21 19:43:00,
2013-06-21 15:48:00,82.2,69.2,30.24,WNW,292,1.2,3.3,65,0.00,,,0.00,WUHU21623XXSP,2013-06-21 19:48:00,
2013-06-21 15:53:00,82.0,69.0,30.24,NNE,22,0.0,1.3,65,0.00,,,0.00,WUHU21623XXSP,2013-06-21 19:53:00,
2013-06-21 15:58:00,81.7,68.7,30.23,SSW,202,1.7,3.0,65,0.00,,,0.00,WUHU21623XXSP,2013-06-21 19:58:00,
2013-06-21 16:03:00,81.5,69.0,30.23,West,270,2.6,3.0,66,0.00,,,0.00,WUHU21623XXSP,2013-06-21 20:03:00,
2013-06-21 16:04:00,81.5,69.0,30.22,West,270,2.6,3.0,66,0.00,,,0.00,WUHU21623XXSP,2013-06-21 20:04:00,
2013-06-21 16:09:00,81.5,69.0,30.22,WNW,292,0.0,3.0,66,0.00,,,0.00,WUHU21623XXSP,2013-06-21 20:09:00,
2013-06-21 16:10:00,81.5,69.0,30.22,WNW,292,0.0,3.0,66,0.00,,,0.00,WUHU21623XXSP,2013-06-21 20:10:00,
2013-06-21 16:11:00,81.5,69.0,30.22,West,270,2.1,3.0,66,0.00,,,0.00,WUHU21623XXSP,2013-06-21 20:11:00,
2013-06-21 16:13:00,81.7,70.1,30.22,West,270,0.0,3.0,68,0.00,,,0.00,WUHU21623XXSP,2013-06-21 20:13:00,
2013-06-21 16:18:00,81.5,68.1,30.22,West,270,2.1,2.4,64,0.00,,,0.00,WUHU21623XXSP,2013-06-21 20:18:00,
2013-06-21 16:23:00,81.5,69.4,30.22,WNW,292,0.0,2.4,67,0.00,,,0.00,WUHU21623XXSP,2013-06-21 20:23:00,
2013-06-21 16:28:00,81.5,69.0,30.22,WNW,292,0.0,2.4,66,0.00,,,0.00,WUHU21623XXSP,2013-06-21 20:28:00,
2013-06-21 16:33:00,81.3,68.8,30.21,WNW,292,0.0,0.0,66,0.00,,,0.00,WUHU21623XXSP,2013-06-21 20:33:00,
2013-06-21 16:38:00,81.3,68.4,30.21,SSW,202,0.0,0.0,65,0.00,,,0.00,WUHU21623XXSP,2013-06-21 20:38:00,
2013-06-21 16:43:00,81.3,68.8,30.21,North,0,0.0,0.0,66,0.00,,,0.00,WUHU21623XXSP,2013-06-21 20:43:00,
2013-06-21 16:49:00,81.3,68.4,30.21,WNW,292,0.0,0.0,65,0.00,,,0.00,WUHU21623XXSP,2013-06-21 20:49:00,
2013-06-21 16:54:00,81.3,68.4,30.21,West,270,0.0,0.0,65,0.00,,,0.00,WUHU21623XXSP,2013-06-21 20:54:00,
2013-06-21 16:59:00,81.3,69.3,30.21,South,180,0.0,0.0,67,0.00,,,0.00,WUHU21623XXSP,2013-06-21 20:59:00,
2013-06-21 17:04:00,81.3,68.4,30.21,WNW,292,0.0,0.0,66,0.00,,,0.00,WUHU21623XXSP,2013-06-21 21:04:00,
2013-06-21 17:09:00,81.3,68.8,30.21,North,0,0.0,0.0,66,0.00,,,0.00,WUHU21623XXSP,2013-06-21 21:09:00,
2013-06-21 17:14:00,81.3,68.4,30.21,SSW,202,0.0,0.0,65,0.00,,,0.00,WUHU21623XXSP,2013-06-21 21:14:00,
2013-06-21 17:19:00,81.1,68.7,30.20,North,0,0.0,0.0,66,0.00,,,0.00,WUHU21623XXSP,2013-06-21 21:19:00,
2013-06-21 17:24:00,81.3,69.3,30.21,WNW,292,0.0,0.0,67,0.00,,,0.00,WUHU21623XXSP,2013-06-21 21:24:00,
2013-06-21 17:29:00,81.3,69.3,30.21,WNW,292,0.0,0.0,67,0.00,,,0.00,WUHU21623XXSP,2013-06-21 21:29:00,
2013-06-21 17:34:00,81.1,68.7,30.21,WNW,292,0.0,0.0,66,0.00,,,0.00,WUHU21623XXSP,2013-06-21 21:34:00,
2013-06-21 17:39:00,81.1,69.1,30.21,North,0,0.0,0.0,67,0.00,,,0.00,WUHU21623XXSP,2013-06-21 21:39:00,
2013-06-21 17:44:00,81.0,69.4,30.20,North,0,0.0,0.0,68,0.00,,,0.00,WUHU21623XXSP,2013-06-21 21:44:00,
2013-06-21 17:49:00,81.1,69.6,30.20,North,0,0.0,0.0,68,0.00,,,0.00,WUHU21623XXSP,2013-06-21 21:49:00,
2013-06-21 17:54:00,81.1,69.6,30.20,North,0,0.0,0.0,68,0.00,,,0.00,WUHU21623XXSP,2013-06-21 21:54:00,
2013-06-21 17:59:00,80.8,69.2,30.20,North,0,0.0,0.0,68,0.00,,,0.00,WUHU21623XXSP,2013-06-21 21:59:00,
2013-06-21 18:04:00,80.8,69.2,30.19,WNW,292,0.0,0.0,68,0.00,,,0.00,WUHU21623XXSP,2013-06-21 22:04:00,
2013-06-21 18:09:00,80.6,69.5,30.20,WNW,292,0.0,0.0,69,0.00,,,0.00,WUHU21623XXSP,2013-06-21 22:09:00,
2013-06-21 18:14:00,80.4,68.9,30.20,North,0,0.0,0.0,68,0.00,,,0.00,WUHU21623XXSP,2013-06-21 22:14:00,
2013-06-21 18:19:00,80.4,68.5,30.19,North,0,0.0,0.0,67,0.00,,,0.00,WUHU21623XXSP,2013-06-21 22:19:00,
2013-06-21 18:24:00,80.4,68.5,30.19,WNW,292,0.0,0.0,67,0.00,,,0.00,WUHU21623XXSP,2013-06-21 22:24:00,
2013-06-21 18:29:00,80.2,68.7,30.19,WNW,292,0.0,0.0,68,0.00,,,0.00,WUHU21623XXSP,2013-06-21 22:29:00,
2013-06-21 18:34:00,79.9,68.8,30.19,WNW,292,0.0,0.0,69,0.00,,,0.00,WUHU21623XXSP,2013-06-21 22:34:00,
2013-06-21 18:39:00,79.9,68.8,30.19,WNW,292,0.0,0.0,69,0.00,,,0.00,WUHU21623XXSP,2013-06-21 22:39:00,
2013-06-21 18:44:00,79.5,68.9,30.18,WNW,292,0.0,0.0,70,0.00,,,0.00,WUHU21623XXSP,2013-06-21 22:44:00,
2013-06-21 18:49:00,79.5,66.7,30.18,North,0,0.0,0.0,65,0.00,,,0.00,WUHU21623XXSP,2013-06-21 22:49:00,
2013-06-21 18:55:00,79.3,66.1,30.18,North,0,0.0,0.0,64,0.00,,,0.00,WUHU21623XXSP,2013-06-21 22:55:00,
2013-06-21 19:00:00,79.3,66.1,30.18,North,0,0.0,0.0,64,0.00,,,0.00,WUHU21623XXSP,2013-06-21 23:00:00,
2013-06-21 19:05:00,79.3,67.0,30.18,North,0,0.0,0.0,66,0.00,,,0.00,WUHU21623XXSP,2013-06-21 23:05:00,
2013-06-21 19:09:00,78.8,67.7,30.17,North,0,0.0,0.0,69,0.00,,,0.00,WUHU21623XXSP,2013-06-21 23:09:00,
2013-06-21 19:15:00,78.6,67.1,30.17,ESE,112,0.0,0.0,68,0.00,,,0.00,WUHU21623XXSP,2013-06-21 23:15:00,
2013-06-21 19:20:00,78.4,67.4,30.17,ESE,112,0.0,0.0,69,0.00,,,0.00,WUHU21623XXSP,2013-06-21 23:20:00,
2013-06-21 19:25:00,78.4,67.9,30.17,East,90,0.0,0.0,70,0.00,,,0.00,WUHU21623XXSP,2013-06-21 23:25:00,
2013-06-21 19:30:00,78.1,67.9,30.17,East,90,0.0,0.0,71,0.00,,,0.00,WUHU21623XXSP,2013-06-21 23:30:00,
2013-06-21 19:35:00,78.1,68.3,30.17,NNE,22,0.0,0.0,72,0.00,,,0.00,WUHU21623XXSP,2013-06-21 23:35:00,
2013-06-21 19:40:00,77.9,68.5,30.17,ESE,112,0.0,0.0,73,0.00,,,0.00,WUHU21623XXSP,2013-06-21 23:40:00,
2013-06-21 19:45:00,77.5,68.6,30.18,East,90,0.0,0.0,74,0.00,,,0.00,WUHU21623XXSP,2013-06-21 23:45:00,
2013-06-21 19:50:00,77.4,68.8,30.18,NNE,22,0.0,0.0,75,0.00,,,0.00,WUHU21623XXSP,2013-06-21 23:50:00,
2013-06-21 19:55:00,77.2,69.0,30.18,East,90,0.0,0.0,76,0.00,,,0.00,WUHU21623XXSP,2013-06-21 23:55:00,
2013-06-21 20:00:00,76.8,69.0,30.18,ESE,112,0.0,0.0,77,0.00,,,0.00,WUHU21623XXSP,2013-06-22 00:00:00,
2013-06-21 20:05:00,76.6,68.9,30.18,East,90,0.0,0.0,77,0.00,,,0.00,WUHU21623XXSP,2013-06-22 00:05:00,
2013-06-21 20:10:00,76.6,69.2,30.18,ESE,112,0.0,0.0,78,0.00,,,0.00,WUHU21623XXSP,2013-06-22 00:10:00,
2013-06-21 20:15:00,75.9,68.6,30.18,East,90,0.0,0.0,78,0.00,,,0.00,WUHU21623XXSP,2013-06-22 00:15:00,
2013-06-21 20:20:00,75.7,68.4,30.18,East,90,0.0,0.0,78,0.00,,,0.00,WUHU21623XXSP,2013-06-22 00:20:00,
2013-06-21 20:25:00,75.4,68.5,30.18,NNE,22,0.0,0.0,79,0.00,,,0.00,WUHU21623XXSP,2013-06-22 00:25:00,
2013-06-21 20:30:00,75.0,68.1,30.18,East,90,0.0,0.0,79,0.00,,,0.00,WUHU21623XXSP,2013-06-22 00:30:00,
2013-06-21 20:35:00,74.8,68.4,30.18,West,270,0.0,0.0,80,0.00,,,0.00,WUHU21623XXSP,2013-06-22 00:35:00,
2013-06-21 20:40:00,74.3,67.8,30.18,ESE,112,0.0,0.0,80,0.00,,,0.00,WUHU21623XXSP,2013-06-22 00:40:00,
2013-06-21 20:45:00,74.1,68.0,30.18,ESE,112,0.0,0.0,81,0.00,,,0.00,WUHU21623XXSP,2013-06-22 00:45:00,
2013-06-21 20:50:00,73.6,67.4,30.17,ESE,112,0.0,0.0,81,0.00,,,0.00,WUHU21623XXSP,2013-06-22 00:50:00,
2013-06-21 20:55:00,73.2,67.4,30.17,East,90,0.0,0.0,82,0.00,,,0.00,WUHU21623XXSP,2013-06-22 00:55:00,
2013-06-21 21:00:00,72.9,66.7,30.17,NNE,22,0.0,0.0,81,0.00,,,0.00,WUHU21623XXSP,2013-06-22 01:00:00,
2013-06-21 21:05:00,72.5,66.4,30.17,East,90,0.0,0.0,81,0.00,,,0.00,WUHU21623XXSP,2013-06-22 01:05:00,
2013-06-21 21:10:00,72.1,66.0,30.18,East,90,0.0,0.0,81,0.00,,,0.00,WUHU21623XXSP,2013-06-22 01:10:00,
2013-06-21 21:15:00,71.8,65.6,30.18,SSW,202,0.0,0.0,81,0.00,,,0.00,WUHU21623XXSP,2013-06-22 01:15:00,
2013-06-21 21:20:00,71.4,65.6,30.18,South,180,0.0,0.0,82,0.00,,,0.00,WUHU21623XXSP,2013-06-22 01:20:00,
2013-06-21 21:25:00,71.2,65.8,30.19,East,90,0.0,0.0,83,0.00,,,0.00,WUHU21623XXSP,2013-06-22 01:25:00,
2013-06-21 21:30:00,70.9,65.4,30.19,East,90,0.0,0.0,83,0.00,,,0.00,WUHU21623XXSP,2013-06-22 01:30:00,
2013-06-21 21:35:00,70.5,65.1,30.19,South,180,0.0,0.0,83,0.00,,,0.00,WUHU21623XXSP,2013-06-22 01:35:00,
2013-06-21 21:40:00,70.3,64.9,30.19,South,180,0.0,0.0,83,0.00,,,0.00,WUHU21623XXSP,2013-06-22 01:40:00,
2013-06-21 21:45:00,70.2,64.7,30.19,ESE,112,0.0,0.0,83,0.00,,,0.00,WUHU21623XXSP,2013-06-22 01:45:00,
2013-06-21 21:50:00,70.0,64.9,30.20,ESE,112,0.0,0.0,84,0.00,,,0.00,WUHU21623XXSP,2013-06-22 01:50:00,
2013-06-21 21:55:00,69.8,64.7,30.20,ESE,112,0.0,0.0,84,0.00,,,0.00,WUHU21623XXSP,2013-06-22 01:55:00,
2013-06-21 22:00:00,69.6,64.5,30.20,ESE,112,0.0,0.0,84,0.00,,,0.00,WUHU21623XXSP,2013-06-22 02:00:00,
2013-06-21 22:05:00,69.4,64.3,30.20,East,90,0.0,0.0,84,0.00,,,0.00,WUHU21623XXSP,2013-06-22 02:05:00,
2013-06-21 22:10:00,69.3,64.2,30.20,ESE,112,0.0,0.0,84,0.00,,,0.00,WUHU21623XXSP,2013-06-22 02:10:00,
2013-06-21 22:15:00,68.9,64.2,30.20,ESE,112,0.0,0.0,85,0.00,,,0.00,WUHU21623XXSP,2013-06-22 02:15:00,
2013-06-21 22:20:00,68.7,64.0,30.20,East,90,0.0,0.0,85,0.00,,,0.00,WUHU21623XXSP,2013-06-22 02:20:00,
2013-06-21 22:25:00,68.7,64.0,30.21,ESE,112,0.0,0.0,85,0.00,,,0.00,WUHU21623XXSP,2013-06-22 02:25:00,
2013-06-21 22:30:00,68.5,63.8,30.21,East,90,0.0,0.0,85,0.00,,,0.00,WUHU21623XXSP,2013-06-22 02:30:00,
2013-06-21 22:35:00,68.4,63.7,30.21,SSW,202,0.0,0.0,85,0.00,,,0.00,WUHU21623XXSP,2013-06-22 02:35:00,
2013-06-21 22:40:00,68.4,63.7,30.21,NNE,22,0.0,0.0,85,0.00,,,0.00,WUHU21623XXSP,2013-06-22 02:40:00,
2013-06-21 22:45:00,68.2,63.5,30.21,ESE,112,0.0,0.0,85,0.00,,,0.00,WUHU21623XXSP,2013-06-22 02:45:00,
2013-06-21 22:50:00,68.2,63.5,30.22,ESE,112,0.0,0.0,85,0.00,,,0.00,WUHU21623XXSP,2013-06-22 02:50:00,
2013-06-21 22:55:00,68.2,63.8,30.22,NNE,22,0.0,0.0,86,0.00,,,0.00,WUHU21623XXSP,2013-06-22 02:55:00,
2013-06-21 23:00:00,67.8,63.5,30.22,East,90,0.0,0.0,86,0.00,,,0.00,WUHU21623XXSP,2013-06-22 03:00:00,
2013-06-21 23:05:00,67.8,63.5,30.22,ESE,112,0.0,0.0,86,0.00,,,0.00,WUHU21623XXSP,2013-06-22 03:05:00,
2013-06-21 23:10:00,67.8,63.5,30.22,South,180,0.0,0.0,86,0.00,,,0.00,WUHU21623XXSP,2013-06-22 03:10:00,
2013-06-21 23:15:00,67.8,63.8,30.22,NNE,22,0.0,0.0,87,0.00,,,0.00,WUHU21623XXSP,2013-06-22 03:15:00,
2013-06-21 23:20:00,67.6,63.6,30.22,ESE,112,0.0,0.0,87,0.00,,,0.00,WUHU21623XXSP,2013-06-22 03:20:00,
2013-06-21 23:25:00,67.6,63.6,30.22,ESE,112,0.0,0.0,87,0.00,,,0.00,WUHU21623XXSP,2013-06-22 03:25:00,
2013-06-21 23:30:00,67.6,63.6,30.22,WNW,292,0.0,0.0,87,0.00,,,0.00,WUHU21623XXSP,2013-06-22 03:30:00,
2013-06-21 23:35:00,67.6,63.6,30.22,ESE,112,0.0,0.0,87,0.00,,,0.00,WUHU21623XXSP,2013-06-22 03:35:00,
2013-06-21 23:40:00,67.3,63.2,30.22,East,90,0.0,0.0,87,0.00,,,0.00,WUHU21623XXSP,2013-06-22 03:40:00,
2013-06-21 23:45:00,67.3,63.2,30.22,East,90,0.0,0.0,87,0.00,,,0.00,WUHU21623XXSP,2013-06-22 03:45:00,
2013-06-21 23:50:00,67.3,63.2,30.22,ESE,112,0.0,0.0,87,0.00,,,0.00,WUHU21623XXSP,2013-06-22 03:50:00,
2013-06-21 23:55:00,67.3,63.2,30.22,North,0,0.0,0.0,87,0.00,,,0.00,WUHU21623XXSP,2013-06-22 03:55:00,